User: anonymous   Login
Location: Space Photons Observatory
(33.2428°N, 111.5467°W)
Time: 17:08:00
(UTC-07:00)
Language:

RESURS DK-1 - Orbit

View from above orbital plane
View from above orbital plane
View from above satellite
View from above satellite

Ground track
Ground track

The orbit data is extracted from the following two-line orbital elements,

1 29228U 06021A   15062.44909721  .00000859  00000-0  74177-4 0  9994
2 29228 069.9370 065.7874 0006458 213.6809 304.4911 15.01281135482472
Epoch (UTC): 03 March 2015 10:46:41
Eccentricity: 0.0006458
inclination: 69.9370°
perigee height: 558 km
apogee height: 567 km
right ascension of ascending node: 65.7874°
argument of perigee: 213.6809°
revolutions per day: 15.01281135
mean anomaly at epoch: 304.4911°
orbit number at epoch: 48247

The dashed part of the orbit path shows where the satellite is in the earth's shadow,  

DLR